Year,Month,Day,Hour,Minute,Value (Times are PST for temperature in C)
2019,11,21,00,00,5.30
2019,11,21,00,01,5.30
2019,11,21,00,02,5.30
2019,11,21,00,03,5.30
2019,11,21,00,04,5.30
2019,11,21,00,05,5.30
2019,11,21,00,06,5.30
2019,11,21,00,07,5.30
2019,11,21,00,08,5.30
2019,11,21,00,09,5.30
2019,11,21,00,10,5.30
2019,11,21,00,11,5.30
2019,11,21,00,12,5.30
2019,11,21,00,13,5.30
2019,11,21,00,14,5.20
2019,11,21,00,15,5.20
2019,11,21,00,16,5.20
2019,11,21,00,17,5.20
2019,11,21,00,18,5.20
2019,11,21,00,19,5.20
2019,11,21,00,20,5.30
2019,11,21,00,21,5.30
2019,11,21,00,22,5.30
2019,11,21,00,23,5.30
2019,11,21,00,24,5.30
2019,11,21,00,25,5.20
2019,11,21,00,26,5.20
2019,11,21,00,27,5.20
2019,11,21,00,28,5.20
2019,11,21,00,29,5.20
2019,11,21,00,30,5.20
2019,11,21,00,31,5.20
2019,11,21,00,32,5.20
2019,11,21,00,33,5.20
2019,11,21,00,34,5.20
2019,11,21,00,35,5.20
2019,11,21,00,36,5.20
2019,11,21,00,37,5.20
2019,11,21,00,38,5.20
2019,11,21,00,39,5.10
2019,11,21,00,40,5.20
2019,11,21,00,41,5.20
2019,11,21,00,42,5.20
2019,11,21,00,43,5.10
2019,11,21,00,44,5.10
2019,11,21,00,45,5.10
2019,11,21,00,46,5.10
2019,11,21,00,47,5.10
2019,11,21,00,48,5.20
2019,11,21,00,49,5.20
2019,11,21,00,50,5.20
2019,11,21,00,51,5.20
2019,11,21,00,52,5.20
2019,11,21,00,53,5.20
2019,11,21,00,54,5.20
2019,11,21,00,55,5.20
2019,11,21,00,56,5.20
2019,11,21,00,57,5.20
2019,11,21,00,58,5.10
2019,11,21,00,59,5.10
2019,11,21,01,00,5.10
2019,11,21,01,01,5.10
2019,11,21,01,02,5.10
2019,11,21,01,03,5.10
2019,11,21,01,04,5.20
2019,11,21,01,05,5.20
2019,11,21,01,06,5.20
2019,11,21,01,07,5.20
2019,11,21,01,08,5.20
2019,11,21,01,09,5.20
2019,11,21,01,10,5.20
2019,11,21,01,11,5.20
2019,11,21,01,12,5.20
2019,11,21,01,13,5.20
2019,11,21,01,14,5.20
2019,11,21,01,15,5.20
2019,11,21,01,16,5.20
2019,11,21,01,17,5.20
2019,11,21,01,18,5.20
2019,11,21,01,19,5.20
2019,11,21,01,20,5.20
2019,11,21,01,21,5.20
2019,11,21,01,22,5.20
2019,11,21,01,23,5.20
2019,11,21,01,24,5.20
2019,11,21,01,25,5.30
2019,11,21,01,26,5.30
2019,11,21,01,27,5.30
2019,11,21,01,28,5.30
2019,11,21,01,29,5.20
2019,11,21,01,30,5.20
2019,11,21,01,31,5.20
2019,11,21,01,32,5.20
2019,11,21,01,33,5.20
2019,11,21,01,34,5.10
2019,11,21,01,35,5.10
2019,11,21,01,36,5.10
2019,11,21,01,37,5.10
2019,11,21,01,38,5.10
2019,11,21,01,39,5.10
2019,11,21,01,40,5.10
2019,11,21,01,41,5.10
2019,11,21,01,42,5.10
2019,11,21,01,43,5.00
2019,11,21,01,44,5.00
2019,11,21,01,45,5.00
2019,11,21,01,46,5.00
2019,11,21,01,47,5.00
2019,11,21,01,48,5.00
2019,11,21,01,49,5.00
2019,11,21,01,50,5.00
2019,11,21,01,51,5.00
2019,11,21,01,52,5.00
2019,11,21,01,53,5.10
2019,11,21,01,54,5.10
2019,11,21,01,55,5.10
2019,11,21,01,56,5.10
2019,11,21,01,57,5.10
2019,11,21,01,58,5.10
2019,11,21,01,59,5.10
2019,11,21,02,00,5.10
2019,11,21,02,01,5.20
2019,11,21,02,02,5.20
2019,11,21,02,03,5.20
2019,11,21,02,04,5.20
2019,11,21,02,05,5.20
2019,11,21,02,06,5.20
2019,11,21,02,07,5.20
2019,11,21,02,08,5.20
2019,11,21,02,09,5.20
2019,11,21,02,10,5.20
2019,11,21,02,11,5.20
2019,11,21,02,12,5.20
2019,11,21,02,13,5.20
2019,11,21,02,14,5.20
2019,11,21,02,15,5.20
2019,11,21,02,16,5.10
2019,11,21,02,17,5.10
2019,11,21,02,18,5.10
2019,11,21,02,19,5.10
2019,11,21,02,20,5.10
2019,11,21,02,21,5.10
2019,11,21,02,22,5.10
2019,11,21,02,23,5.10
2019,11,21,02,24,5.00
2019,11,21,02,25,5.00
2019,11,21,02,26,5.00
2019,11,21,02,27,5.00
2019,11,21,02,28,4.90
2019,11,21,02,29,4.90
2019,11,21,02,30,4.90
2019,11,21,02,31,4.90
2019,11,21,02,32,4.90
2019,11,21,02,33,4.90
2019,11,21,02,34,4.90
2019,11,21,02,35,5.00
2019,11,21,02,36,5.00
2019,11,21,02,37,5.00
2019,11,21,02,38,5.00
2019,11,21,02,39,5.10
2019,11,21,02,40,5.10
2019,11,21,02,41,5.10
2019,11,21,02,42,5.10
2019,11,21,02,43,5.10
2019,11,21,02,44,5.10
2019,11,21,02,45,5.10
2019,11,21,02,46,5.10
2019,11,21,02,47,5.00
2019,11,21,02,48,5.00
2019,11,21,02,49,5.00
2019,11,21,02,50,5.00
2019,11,21,02,51,5.00
2019,11,21,02,52,5.00
2019,11,21,02,53,5.00
2019,11,21,02,54,5.00
2019,11,21,02,55,5.00
2019,11,21,02,56,5.00
2019,11,21,02,57,5.00
2019,11,21,02,58,5.00
2019,11,21,02,59,4.90
2019,11,21,03,00,4.90
2019,11,21,03,01,4.90
2019,11,21,03,02,4.90
2019,11,21,03,03,4.90
2019,11,21,03,04,4.90
2019,11,21,03,05,4.90
2019,11,21,03,06,4.90
2019,11,21,03,07,4.90
2019,11,21,03,08,4.90
2019,11,21,03,09,4.90
2019,11,21,03,10,4.90
2019,11,21,03,11,4.90
2019,11,21,03,12,4.90
2019,11,21,03,13,4.90
2019,11,21,03,14,4.90
2019,11,21,03,15,4.90
2019,11,21,03,16,4.90
2019,11,21,03,17,4.80
2019,11,21,03,18,4.80
2019,11,21,03,19,4.80
2019,11,21,03,20,4.80
2019,11,21,03,21,4.80
2019,11,21,03,22,4.80
2019,11,21,03,23,4.80
2019,11,21,03,24,4.70
2019,11,21,03,25,4.70
2019,11,21,03,26,4.70
2019,11,21,03,27,4.70
2019,11,21,03,28,4.70
2019,11,21,03,29,4.70
2019,11,21,03,30,4.70
2019,11,21,03,31,4.70
2019,11,21,03,32,4.70
2019,11,21,03,33,4.70
2019,11,21,03,34,4.60
2019,11,21,03,35,4.60
2019,11,21,03,36,4.60
2019,11,21,03,37,4.60
2019,11,21,03,38,4.60
2019,11,21,03,39,4.60
2019,11,21,03,40,4.60
2019,11,21,03,41,4.60
2019,11,21,03,42,4.50
2019,11,21,03,43,4.50
2019,11,21,03,44,4.50
2019,11,21,03,45,4.50
2019,11,21,03,46,4.50
2019,11,21,03,47,4.50
2019,11,21,03,48,4.50
2019,11,21,03,49,4.60
2019,11,21,03,50,4.60
2019,11,21,03,51,4.60
2019,11,21,03,52,4.60
2019,11,21,03,53,4.60
2019,11,21,03,54,4.60
2019,11,21,03,55,4.60
2019,11,21,03,56,4.60
2019,11,21,03,57,4.60
2019,11,21,03,58,4.70
2019,11,21,03,59,4.70
2019,11,21,04,00,4.70
2019,11,21,04,01,4.70
2019,11,21,04,02,4.70
2019,11,21,04,03,4.70
2019,11,21,04,04,4.70
2019,11,21,04,05,4.70
2019,11,21,04,06,4.70
2019,11,21,04,07,4.70
2019,11,21,04,08,4.70
2019,11,21,04,09,4.70
2019,11,21,04,10,4.70
2019,11,21,04,11,4.70
2019,11,21,04,12,4.80
2019,11,21,04,13,4.80
2019,11,21,04,14,4.80
2019,11,21,04,15,4.80
2019,11,21,04,16,4.80
2019,11,21,04,17,4.80
2019,11,21,04,18,4.80
2019,11,21,04,19,4.80
2019,11,21,04,20,4.80
2019,11,21,04,21,4.90
2019,11,21,04,22,4.90
2019,11,21,04,23,5.00
2019,11,21,04,24,5.00
2019,11,21,04,25,5.00
2019,11,21,04,26,5.10
2019,11,21,04,27,5.10
2019,11,21,04,28,5.10
2019,11,21,04,29,5.10
2019,11,21,04,30,5.10
2019,11,21,04,31,5.10
2019,11,21,04,32,5.10
2019,11,21,04,33,5.10
2019,11,21,04,34,5.20
2019,11,21,04,35,5.20
2019,11,21,04,36,5.20
2019,11,21,04,37,5.20
2019,11,21,04,38,5.20
2019,11,21,04,39,5.20
2019,11,21,04,40,5.20
2019,11,21,04,41,5.20
2019,11,21,04,42,5.10
2019,11,21,04,43,5.10
2019,11,21,04,44,5.10
2019,11,21,04,45,5.10
2019,11,21,04,46,5.10
2019,11,21,04,47,5.10
2019,11,21,04,48,5.10
2019,11,21,04,49,5.10
2019,11,21,04,50,5.00
2019,11,21,04,51,5.00
2019,11,21,04,52,5.00
2019,11,21,04,53,5.00
2019,11,21,04,54,5.00
2019,11,21,04,55,5.00
2019,11,21,04,56,5.00
2019,11,21,04,57,4.90
2019,11,21,04,58,4.90
2019,11,21,04,59,4.90
2019,11,21,05,00,4.90
2019,11,21,05,01,4.90
2019,11,21,05,02,4.90
2019,11,21,05,03,4.80
2019,11,21,05,04,4.80
2019,11,21,05,05,4.80
2019,11,21,05,06,4.80
2019,11,21,05,07,4.80
2019,11,21,05,08,4.80
2019,11,21,05,09,4.80
2019,11,21,05,10,4.80
2019,11,21,05,11,4.80
2019,11,21,05,12,4.80
2019,11,21,05,13,4.80
2019,11,21,05,14,4.80
2019,11,21,05,15,4.80
2019,11,21,05,16,4.80
2019,11,21,05,17,4.80
2019,11,21,05,18,4.80
2019,11,21,05,19,4.80
2019,11,21,05,20,4.80
2019,11,21,05,21,4.80
2019,11,21,05,22,4.80
2019,11,21,05,23,4.70
2019,11,21,05,24,4.70
2019,11,21,05,25,4.70
2019,11,21,05,26,4.70
2019,11,21,05,27,4.60
2019,11,21,05,28,4.60
2019,11,21,05,29,4.60
2019,11,21,05,30,4.60
2019,11,21,05,31,4.60
2019,11,21,05,32,4.60
2019,11,21,05,33,4.60
2019,11,21,05,34,4.60
2019,11,21,05,35,4.60
2019,11,21,05,36,4.60
2019,11,21,05,37,4.60
2019,11,21,05,38,4.60
2019,11,21,05,39,4.60
2019,11,21,05,40,4.50
2019,11,21,05,41,4.50
2019,11,21,05,42,4.50
2019,11,21,05,43,4.40
2019,11,21,05,44,4.40
2019,11,21,05,45,4.40
2019,11,21,05,46,4.40
2019,11,21,05,47,4.30
2019,11,21,05,48,4.30
2019,11,21,05,49,4.30
2019,11,21,05,50,4.30
2019,11,21,05,51,4.30
2019,11,21,05,52,4.30
2019,11,21,05,53,4.30
2019,11,21,05,54,4.20
2019,11,21,05,55,4.20
2019,11,21,05,56,4.20
2019,11,21,05,57,4.20
2019,11,21,05,58,4.20
2019,11,21,05,59,4.20
2019,11,21,06,00,4.20
2019,11,21,06,01,4.20
2019,11,21,06,02,4.20
2019,11,21,06,03,4.20
2019,11,21,06,04,4.20
2019,11,21,06,05,4.20
2019,11,21,06,06,4.20
2019,11,21,06,07,4.20
2019,11,21,06,08,4.20
2019,11,21,06,09,4.20
2019,11,21,06,10,4.20
2019,11,21,06,11,4.20
2019,11,21,06,12,4.20
2019,11,21,06,13,4.20
2019,11,21,06,14,4.20
2019,11,21,06,15,4.20
2019,11,21,06,16,4.20
2019,11,21,06,17,4.20
2019,11,21,06,18,4.20
2019,11,21,06,19,4.20
2019,11,21,06,20,4.20
2019,11,21,06,21,4.20
2019,11,21,06,22,4.20
2019,11,21,06,23,4.20
2019,11,21,06,24,4.30
2019,11,21,06,25,4.20
2019,11,21,06,26,4.20
2019,11,21,06,27,4.20
2019,11,21,06,28,4.20
2019,11,21,06,29,4.20
2019,11,21,06,30,4.10
2019,11,21,06,31,4.10
2019,11,21,06,32,4.10
2019,11,21,06,33,4.10
2019,11,21,06,34,4.10
2019,11,21,06,35,4.10
2019,11,21,06,36,4.00
2019,11,21,06,37,4.00
2019,11,21,06,38,4.00
2019,11,21,06,39,4.00
2019,11,21,06,40,3.90
2019,11,21,06,41,3.90
2019,11,21,06,42,3.90
2019,11,21,06,43,3.90
2019,11,21,06,44,3.90
2019,11,21,06,45,3.90
2019,11,21,06,46,3.90
2019,11,21,06,47,3.90
2019,11,21,06,48,3.90
2019,11,21,06,49,3.90
2019,11,21,06,50,3.90
2019,11,21,06,51,3.90
2019,11,21,06,52,3.90
2019,11,21,06,53,3.90
2019,11,21,06,54,3.90
2019,11,21,06,55,3.90
2019,11,21,06,56,3.90
2019,11,21,06,57,3.90
2019,11,21,06,58,3.90
2019,11,21,06,59,3.90
2019,11,21,07,00,3.90
2019,11,21,07,01,3.90
2019,11,21,07,02,3.90
2019,11,21,07,03,3.90
2019,11,21,07,04,3.90
2019,11,21,07,05,3.90
2019,11,21,07,06,3.90
2019,11,21,07,07,3.90
2019,11,21,07,08,3.90
2019,11,21,07,09,3.90
2019,11,21,07,10,3.90
2019,11,21,07,11,3.90
2019,11,21,07,12,3.90
2019,11,21,07,13,3.90
2019,11,21,07,14,3.90
2019,11,21,07,15,4.00
2019,11,21,07,16,4.00
2019,11,21,07,17,4.00
2019,11,21,07,18,4.00
2019,11,21,07,19,4.00
2019,11,21,07,20,4.00
2019,11,21,07,21,4.00
2019,11,21,07,22,4.10
2019,11,21,07,23,4.10
2019,11,21,07,24,4.10
2019,11,21,07,25,4.10
2019,11,21,07,26,4.10
2019,11,21,07,27,4.00
2019,11,21,07,28,4.00
2019,11,21,07,29,4.00
2019,11,21,07,30,4.00
2019,11,21,07,31,4.00
2019,11,21,07,32,4.00
2019,11,21,07,33,4.00
2019,11,21,07,34,4.00
2019,11,21,07,35,4.00
2019,11,21,07,36,4.00
2019,11,21,07,37,4.00
2019,11,21,07,38,4.00
2019,11,21,07,39,4.00
2019,11,21,07,40,3.90
2019,11,21,07,41,4.00
2019,11,21,07,42,4.00
2019,11,21,07,43,4.00
2019,11,21,07,44,4.00
2019,11,21,07,45,4.00
2019,11,21,07,46,4.00
2019,11,21,07,47,4.00
2019,11,21,07,48,4.10
2019,11,21,07,49,4.10
2019,11,21,07,50,4.10
2019,11,21,07,51,4.10
2019,11,21,07,52,4.10
2019,11,21,07,53,4.10
2019,11,21,07,54,4.20
2019,11,21,07,55,4.20
2019,11,21,07,56,4.20
2019,11,21,07,57,4.20
2019,11,21,07,58,4.20
2019,11,21,07,59,4.20
2019,11,21,08,00,4.20
2019,11,21,08,01,4.30
2019,11,21,08,02,4.30
2019,11,21,08,03,4.30
2019,11,21,08,04,4.30
2019,11,21,08,05,4.30
2019,11,21,08,06,4.30
2019,11,21,08,07,4.30
2019,11,21,08,08,4.30
2019,11,21,08,09,4.30
2019,11,21,08,10,4.40
2019,11,21,08,11,4.40
2019,11,21,08,12,4.40
2019,11,21,08,13,4.40
2019,11,21,08,14,4.40
2019,11,21,08,15,4.40
2019,11,21,08,16,4.40
2019,11,21,08,17,4.50
2019,11,21,08,18,4.50
2019,11,21,08,19,4.50
2019,11,21,08,20,4.60
2019,11,21,08,21,4.60
2019,11,21,08,22,4.60
2019,11,21,08,23,4.60
2019,11,21,08,24,4.70
2019,11,21,08,25,4.70
2019,11,21,08,26,4.70
2019,11,21,08,27,4.70
2019,11,21,08,28,4.70
2019,11,21,08,29,4.70
2019,11,21,08,30,4.70
2019,11,21,08,31,4.70
2019,11,21,08,32,4.70
2019,11,21,08,33,4.80
2019,11,21,08,34,4.80
2019,11,21,08,35,4.80
2019,11,21,08,36,4.80
2019,11,21,08,37,4.80
2019,11,21,08,38,4.80
2019,11,21,08,39,4.80
2019,11,21,08,40,4.80
2019,11,21,08,41,4.80
2019,11,21,08,42,4.80
2019,11,21,08,43,4.90
2019,11,21,08,44,4.90
2019,11,21,08,45,4.90
2019,11,21,08,46,4.90
2019,11,21,08,47,4.90
2019,11,21,08,48,4.90
2019,11,21,08,49,4.80
2019,11,21,08,50,4.80
2019,11,21,08,51,4.80
2019,11,21,08,52,4.80
2019,11,21,08,53,4.80
2019,11,21,08,54,4.80
2019,11,21,08,55,4.80
2019,11,21,08,56,4.90
2019,11,21,08,57,4.90
2019,11,21,08,58,4.90
2019,11,21,08,59,4.90
2019,11,21,09,00,4.90
2019,11,21,09,01,4.90
2019,11,21,09,02,5.00
2019,11,21,09,03,5.00
2019,11,21,09,04,5.10
2019,11,21,09,05,5.10
2019,11,21,09,06,5.10
2019,11,21,09,07,5.20
2019,11,21,09,08,5.20
2019,11,21,09,09,5.20
2019,11,21,09,10,5.30
2019,11,21,09,11,5.30
2019,11,21,09,12,5.30
2019,11,21,09,13,5.30
2019,11,21,09,14,5.40
2019,11,21,09,15,5.40
2019,11,21,09,16,5.40
2019,11,21,09,17,5.40
2019,11,21,09,18,5.40
2019,11,21,09,19,5.40
2019,11,21,09,20,5.50
2019,11,21,09,21,5.50
2019,11,21,09,22,5.50
2019,11,21,09,23,5.50
2019,11,21,09,24,5.60
2019,11,21,09,25,5.60
2019,11,21,09,26,5.60
2019,11,21,09,27,5.60
2019,11,21,09,28,5.60
2019,11,21,09,29,5.60
2019,11,21,09,30,5.60
2019,11,21,09,31,5.60
2019,11,21,09,32,5.70
2019,11,21,09,33,5.70
2019,11,21,09,34,5.70
2019,11,21,09,35,5.70
2019,11,21,09,36,5.70
2019,11,21,09,37,5.70
2019,11,21,09,38,5.70
2019,11,21,09,39,5.70
2019,11,21,09,40,5.70
2019,11,21,09,41,5.70
2019,11,21,09,42,5.80
2019,11,21,09,43,5.80
2019,11,21,09,44,5.80
2019,11,21,09,45,5.80
2019,11,21,09,46,5.80
2019,11,21,09,47,5.80
2019,11,21,09,48,5.90
2019,11,21,09,49,5.90
2019,11,21,09,50,5.90
2019,11,21,09,51,6.00
2019,11,21,09,52,6.00
2019,11,21,09,53,6.00
2019,11,21,09,54,6.00
2019,11,21,09,55,6.00
2019,11,21,09,56,6.10
2019,11,21,09,57,6.10
2019,11,21,09,58,6.10
2019,11,21,09,59,6.20
2019,11,21,10,00,6.20
2019,11,21,10,01,6.20
2019,11,21,10,02,6.20
2019,11,21,10,03,6.30
2019,11,21,10,04,6.30
2019,11,21,10,05,6.30
2019,11,21,10,06,6.30
2019,11,21,10,07,6.40
2019,11,21,10,08,6.50
2019,11,21,10,09,6.60
2019,11,21,10,10,6.70
2019,11,21,10,11,6.70
2019,11,21,10,12,6.70
2019,11,21,10,13,6.70
2019,11,21,10,14,6.70
2019,11,21,10,15,6.70
2019,11,21,10,16,6.70
2019,11,21,10,17,6.70
2019,11,21,10,18,6.70
2019,11,21,10,19,6.80
2019,11,21,10,20,6.80
2019,11,21,10,21,6.90
2019,11,21,10,22,7.00
2019,11,21,10,23,7.00
2019,11,21,10,24,7.10
2019,11,21,10,25,7.20
2019,11,21,10,26,7.20
2019,11,21,10,27,7.20
2019,11,21,10,28,7.30
2019,11,21,10,29,7.30
2019,11,21,10,30,7.30
2019,11,21,10,31,7.30
2019,11,21,10,32,7.30
2019,11,21,10,33,7.30
2019,11,21,10,34,7.30
2019,11,21,10,35,7.30
2019,11,21,10,36,7.30
2019,11,21,10,37,7.30
2019,11,21,10,38,7.30
2019,11,21,10,39,7.20
2019,11,21,10,40,7.20
2019,11,21,10,41,7.10
2019,11,21,10,42,7.10
2019,11,21,10,43,7.00
2019,11,21,10,44,7.00
2019,11,21,10,45,7.00
2019,11,21,10,46,7.00
2019,11,21,10,47,7.00
2019,11,21,10,48,7.00
2019,11,21,10,49,7.00
2019,11,21,10,50,7.00
2019,11,21,10,51,7.00
2019,11,21,10,52,7.00
2019,11,21,10,53,7.00
2019,11,21,10,54,7.00
2019,11,21,10,55,7.10
2019,11,21,10,56,7.10
2019,11,21,10,57,7.20
2019,11,21,10,58,7.20
2019,11,21,10,59,7.30
2019,11,21,11,00,7.30
2019,11,21,11,01,7.40
2019,11,21,11,02,7.40
2019,11,21,11,03,7.50
2019,11,21,11,04,7.60
2019,11,21,11,05,7.60
2019,11,21,11,06,7.60
2019,11,21,11,07,7.60
2019,11,21,11,08,7.60
2019,11,21,11,09,7.60
2019,11,21,11,10,7.60
2019,11,21,11,11,7.50
2019,11,21,11,12,7.50
2019,11,21,11,13,7.40
2019,11,21,11,14,7.40
2019,11,21,11,15,7.40
2019,11,21,11,16,7.40
2019,11,21,11,17,7.50
2019,11,21,11,18,7.50
2019,11,21,11,19,7.50
2019,11,21,11,20,7.50
2019,11,21,11,21,7.50
2019,11,21,11,22,7.50
2019,11,21,11,23,7.50
2019,11,21,11,24,7.40
2019,11,21,11,25,7.50
2019,11,21,11,26,7.50
2019,11,21,11,27,7.50
2019,11,21,11,28,7.60
2019,11,21,11,29,7.50
2019,11,21,11,30,7.50
2019,11,21,11,31,7.40
2019,11,21,11,32,7.30
2019,11,21,11,33,7.30
2019,11,21,11,34,7.30
2019,11,21,11,35,7.30
2019,11,21,11,36,7.30
2019,11,21,11,37,7.30
2019,11,21,11,38,7.20
2019,11,21,11,39,7.20
2019,11,21,11,40,7.20
2019,11,21,11,41,7.20
2019,11,21,11,42,7.20
2019,11,21,11,43,7.20
2019,11,21,11,44,7.20
2019,11,21,11,45,7.30
2019,11,21,11,46,7.30
2019,11,21,11,47,7.30
2019,11,21,11,48,7.20
2019,11,21,11,49,7.20
2019,11,21,11,50,7.20
2019,11,21,11,51,7.20
2019,11,21,11,52,7.20
2019,11,21,11,53,7.20
2019,11,21,11,54,7.20
2019,11,21,11,55,7.20
2019,11,21,11,56,7.20
2019,11,21,11,57,7.20
2019,11,21,11,58,7.20
2019,11,21,11,59,7.20
2019,11,21,12,00,7.20
2019,11,21,12,01,7.20
2019,11,21,12,02,7.20
2019,11,21,12,03,7.20
2019,11,21,12,04,7.20
2019,11,21,12,05,7.20
2019,11,21,12,06,7.30
2019,11,21,12,07,7.30
2019,11,21,12,08,7.20
2019,11,21,12,09,7.20
2019,11,21,12,10,7.20
2019,11,21,12,11,7.20
2019,11,21,12,12,7.20
2019,11,21,12,13,7.20
2019,11,21,12,14,7.20
2019,11,21,12,15,7.20
2019,11,21,12,16,7.30
2019,11,21,12,17,7.30
2019,11,21,12,18,7.30
2019,11,21,12,19,7.30
2019,11,21,12,20,7.30
2019,11,21,12,21,7.40
2019,11,21,12,22,7.40
2019,11,21,12,23,7.40
2019,11,21,12,24,7.50
2019,11,21,12,25,7.50
2019,11,21,12,26,7.60
2019,11,21,12,27,7.60
2019,11,21,12,28,7.60
2019,11,21,12,29,7.60
2019,11,21,12,30,7.60
2019,11,21,12,31,7.60
2019,11,21,12,32,7.60
2019,11,21,12,33,7.60
2019,11,21,12,34,7.60
2019,11,21,12,35,7.70
2019,11,21,12,36,7.70
2019,11,21,12,37,7.70
2019,11,21,12,38,7.70
2019,11,21,12,39,7.70
2019,11,21,12,40,7.70
2019,11,21,12,41,7.70
2019,11,21,12,42,7.70
2019,11,21,12,43,7.70
2019,11,21,12,44,7.70
2019,11,21,12,45,7.70
2019,11,21,12,46,7.70
2019,11,21,12,47,7.70
2019,11,21,12,48,7.80
2019,11,21,12,49,7.80
2019,11,21,12,50,7.80
2019,11,21,12,51,7.80
2019,11,21,12,52,7.80
2019,11,21,12,53,7.80
2019,11,21,12,54,7.80
2019,11,21,12,55,7.80
2019,11,21,12,56,7.80
2019,11,21,12,57,7.80
2019,11,21,12,58,7.80
2019,11,21,12,59,7.70
2019,11,21,13,00,7.70
2019,11,21,13,01,7.70
2019,11,21,13,02,7.70
2019,11,21,13,03,7.70
2019,11,21,13,04,7.70
2019,11,21,13,05,7.70
2019,11,21,13,06,7.70
2019,11,21,13,07,7.70
2019,11,21,13,08,7.70
2019,11,21,13,09,7.70
2019,11,21,13,10,7.60
2019,11,21,13,11,7.60
2019,11,21,13,12,7.60
2019,11,21,13,13,7.60
2019,11,21,13,14,7.70
2019,11,21,13,15,7.80
2019,11,21,13,16,8.00
2019,11,21,13,17,8.20
2019,11,21,13,18,8.30
2019,11,21,13,19,8.40
2019,11,21,13,20,8.50
2019,11,21,13,21,8.60
2019,11,21,13,22,8.60
2019,11,21,13,23,8.70
2019,11,21,13,24,8.70
2019,11,21,13,25,8.70
2019,11,21,13,26,8.70
2019,11,21,13,27,8.80
2019,11,21,13,28,8.80
2019,11,21,13,29,8.80
2019,11,21,13,30,8.90
2019,11,21,13,31,8.90
2019,11,21,13,32,9.00
2019,11,21,13,33,9.10
2019,11,21,13,34,9.20
2019,11,21,13,35,9.30
2019,11,21,13,36,9.30
2019,11,21,13,37,9.40
2019,11,21,13,38,9.40
2019,11,21,13,39,9.50
2019,11,21,13,40,9.50
2019,11,21,13,41,9.60
2019,11,21,13,42,9.60
2019,11,21,13,43,9.70
2019,11,21,13,44,9.70
2019,11,21,13,45,9.70
2019,11,21,13,46,9.60
2019,11,21,13,47,9.60
2019,11,21,13,48,9.60
2019,11,21,13,49,9.60
2019,11,21,13,50,9.60
2019,11,21,13,51,9.60
2019,11,21,13,52,9.60
2019,11,21,13,53,9.70
2019,11,21,13,54,9.70
2019,11,21,13,55,9.60
2019,11,21,13,56,9.60
2019,11,21,13,57,9.60
2019,11,21,13,58,9.60
2019,11,21,13,59,9.60
2019,11,21,14,00,9.60
2019,11,21,14,01,9.60
2019,11,21,14,02,9.60
2019,11,21,14,03,9.60
2019,11,21,14,04,9.60
2019,11,21,14,05,9.60
2019,11,21,14,06,9.70
2019,11,21,14,07,9.70
2019,11,21,14,08,9.70
2019,11,21,14,09,9.70
2019,11,21,14,10,9.80
2019,11,21,14,11,9.80
2019,11,21,14,12,9.80
2019,11,21,14,13,9.80
2019,11,21,14,14,9.80
2019,11,21,14,15,9.80
2019,11,21,14,16,9.80
2019,11,21,14,17,9.70
2019,11,21,14,18,9.50
2019,11,21,14,19,9.40
2019,11,21,14,20,9.30
2019,11,21,14,21,9.10
2019,11,21,14,22,9.00
2019,11,21,14,23,8.90
2019,11,21,14,24,8.90
2019,11,21,14,25,8.80
2019,11,21,14,26,8.80
2019,11,21,14,27,8.80
2019,11,21,14,28,8.80
2019,11,21,14,29,8.80
2019,11,21,14,30,8.80
2019,11,21,14,31,8.80
2019,11,21,14,32,8.80
2019,11,21,14,33,8.80
2019,11,21,14,34,8.80
2019,11,21,14,35,8.90
2019,11,21,14,36,8.90
2019,11,21,14,37,8.90
2019,11,21,14,38,8.90
2019,11,21,14,39,8.90
2019,11,21,14,40,8.90
2019,11,21,14,41,8.80
2019,11,21,14,42,8.80
2019,11,21,14,43,8.70
2019,11,21,14,44,8.70
2019,11,21,14,45,8.60
2019,11,21,14,46,8.60
2019,11,21,14,47,8.50
2019,11,21,14,48,8.40
2019,11,21,14,49,8.30
2019,11,21,14,50,8.20
2019,11,21,14,51,8.00
2019,11,21,14,52,7.80
2019,11,21,14,53,7.70
2019,11,21,14,54,7.60
2019,11,21,14,55,7.40
2019,11,21,14,56,7.30
2019,11,21,14,57,7.20
2019,11,21,14,58,7.10
2019,11,21,14,59,7.00
2019,11,21,15,00,6.90
2019,11,21,15,01,6.80
2019,11,21,15,02,6.80
2019,11,21,15,03,6.70
2019,11,21,15,04,6.70
2019,11,21,15,05,6.60
2019,11,21,15,06,6.60
2019,11,21,15,07,6.50
2019,11,21,15,08,6.50
2019,11,21,15,09,6.40
2019,11,21,15,10,6.40
2019,11,21,15,11,6.40
2019,11,21,15,12,6.40
2019,11,21,15,13,6.30
2019,11,21,15,14,6.30
2019,11,21,15,15,6.30
2019,11,21,15,16,6.30
2019,11,21,15,17,6.30
2019,11,21,15,18,6.30
2019,11,21,15,19,6.20
2019,11,21,15,20,6.20
2019,11,21,15,21,6.20
2019,11,21,15,22,6.10
2019,11,21,15,23,6.10
2019,11,21,15,24,6.10
2019,11,21,15,25,6.10
2019,11,21,15,26,6.00
2019,11,21,15,27,6.00
2019,11,21,15,28,6.00
2019,11,21,15,29,6.00
2019,11,21,15,30,6.00
2019,11,21,15,31,6.00
2019,11,21,15,32,5.90
2019,11,21,15,33,5.90
2019,11,21,15,34,5.90
2019,11,21,15,35,5.90
2019,11,21,15,36,5.90
2019,11,21,15,37,5.90
2019,11,21,15,38,5.90
2019,11,21,15,39,5.90
2019,11,21,15,40,5.90
2019,11,21,15,41,5.90
2019,11,21,15,42,5.90
2019,11,21,15,43,5.90
2019,11,21,15,44,5.90
2019,11,21,15,45,5.90
2019,11,21,15,46,5.90
2019,11,21,15,47,5.90
2019,11,21,15,48,5.90
2019,11,21,15,49,5.90
2019,11,21,15,50,5.90
2019,11,21,15,51,5.80
2019,11,21,15,52,5.80
2019,11,21,15,53,5.80
2019,11,21,15,54,5.80
2019,11,21,15,55,5.80
2019,11,21,15,56,5.80
2019,11,21,15,57,5.80
2019,11,21,15,58,5.70
2019,11,21,15,59,5.70
2019,11,21,16,00,5.70
2019,11,21,16,01,5.70
2019,11,21,16,02,5.70
2019,11,21,16,03,5.70
2019,11,21,16,04,5.70
2019,11,21,16,05,5.70
2019,11,21,16,06,5.70
2019,11,21,16,07,5.70
2019,11,21,16,08,5.70
2019,11,21,16,09,5.60
2019,11,21,16,10,5.60
2019,11,21,16,11,5.60
2019,11,21,16,12,5.60
2019,11,21,16,13,5.60
2019,11,21,16,14,5.50
2019,11,21,16,15,5.50
2019,11,21,16,16,5.50
2019,11,21,16,17,5.50
2019,11,21,16,18,5.40
2019,11,21,16,19,5.40
2019,11,21,16,20,5.40
2019,11,21,16,21,5.40
2019,11,21,16,22,5.40
2019,11,21,16,23,5.40
2019,11,21,16,24,5.40
2019,11,21,16,25,5.30
2019,11,21,16,26,5.30
2019,11,21,16,27,5.30
2019,11,21,16,28,5.30
2019,11,21,16,29,5.30
2019,11,21,16,30,5.30
2019,11,21,16,31,5.30
2019,11,21,16,32,5.30
2019,11,21,16,33,5.30
2019,11,21,16,34,5.20
2019,11,21,16,35,5.20
2019,11,21,16,36,5.20
2019,11,21,16,37,5.20
2019,11,21,16,38,5.20
2019,11,21,16,39,5.20
2019,11,21,16,40,5.20
2019,11,21,16,41,5.20
2019,11,21,16,42,5.20
2019,11,21,16,43,5.20
2019,11,21,16,44,5.20
2019,11,21,16,45,5.20
2019,11,21,16,46,5.20
2019,11,21,16,47,5.20
2019,11,21,16,48,5.20
2019,11,21,16,49,5.20
2019,11,21,16,50,5.20
2019,11,21,16,51,5.20
2019,11,21,16,52,5.20
2019,11,21,16,53,5.20
2019,11,21,16,54,5.20
2019,11,21,16,55,5.20
2019,11,21,16,56,5.20
2019,11,21,16,57,5.20
2019,11,21,16,58,5.20
2019,11,21,16,59,5.10
2019,11,21,17,00,5.10
2019,11,21,17,01,5.10
2019,11,21,17,02,5.00
2019,11,21,17,03,5.00
2019,11,21,17,04,5.00
2019,11,21,17,05,4.90
2019,11,21,17,06,4.90
2019,11,21,17,07,4.90
2019,11,21,17,08,4.90
2019,11,21,17,09,4.90
2019,11,21,17,10,4.90
2019,11,21,17,11,4.90
2019,11,21,17,12,4.90
2019,11,21,17,13,4.90
2019,11,21,17,14,4.90
2019,11,21,17,15,4.90
2019,11,21,17,16,4.90
2019,11,21,17,17,4.80
2019,11,21,17,18,4.90
2019,11,21,17,19,4.90
2019,11,21,17,20,4.90
2019,11,21,17,21,4.90
2019,11,21,17,22,4.80
2019,11,21,17,23,4.80
2019,11,21,17,24,4.80
2019,11,21,17,25,4.80
2019,11,21,17,26,4.80
2019,11,21,17,27,4.70
2019,11,21,17,28,4.70
2019,11,21,17,29,4.70
2019,11,21,17,30,4.70
2019,11,21,17,31,4.70
2019,11,21,17,32,4.60
2019,11,21,17,33,4.60
2019,11,21,17,34,4.60
2019,11,21,17,35,4.60
2019,11,21,17,36,4.50
2019,11,21,17,37,4.50
2019,11,21,17,38,4.50
2019,11,21,17,39,4.50
2019,11,21,17,40,4.40
2019,11,21,17,41,4.40
2019,11,21,17,42,4.40
2019,11,21,17,43,4.40
2019,11,21,17,44,4.40
2019,11,21,17,45,4.50
2019,11,21,17,46,4.50
2019,11,21,17,47,4.50
2019,11,21,17,48,4.60
2019,11,21,17,49,4.60
2019,11,21,17,50,4.60
2019,11,21,17,51,4.60
2019,11,21,17,52,4.70
2019,11,21,17,53,4.70
2019,11,21,17,54,4.70
2019,11,21,17,55,4.70
2019,11,21,17,56,4.70
2019,11,21,17,57,4.70
2019,11,21,17,58,4.70
2019,11,21,17,59,4.70
2019,11,21,18,00,4.70
2019,11,21,18,01,4.70
2019,11,21,18,02,4.60
2019,11,21,18,03,4.60
2019,11,21,18,04,4.60
2019,11,21,18,05,4.60
2019,11,21,18,06,4.60